Weather Roundup
Issued by NWS

Home | Current Version | Previous Version | Text Only | Print | Product List | Glossary On
Versions: 1 2 3 4 5 6 7 8 9 10 11 12 13 14 15 16 17 18 19 20 21 22 23 24 25 26 27 28 29 30 31 32 33 34 35 36 37 38 39 40 41 42 43 44 45 46 47 48 49 50
870
NZUS93 KARX 251259
HRRWXR

CURRENT HOURLY OBSERVATIONS ACROSS
MUCH OF THE UPPER MISSISSIPPI VALLEY
NATIONAL WEATHER SERVICE LA CROSSE WI
700 AM CST SAT FEB 25 2017


...SOUTHEAST MINNESOTA...


CITY           SKY/WX    TMP DP  RH WIND       PRES   REMARKS
ROCHESTER      CLEAR      9   3  77 NW18      29.86S WCI -10
ROCHESTER/MAYO FAIR      12   6  76 W15       29.87S WCI  -4
WINONA         CLEAR     14   7  73 NW10      29.89R WCI   1
AUSTIN         CLEAR     10   5  79 NW10      29.90R WCI  -3
ALBERT LEA     CLEAR     12   7  79 NW8       29.92R WCI   1
DODGE CENTER   NOT AVBL
PRESTON        CLEAR     10   2  72 NW14      29.86S WCI  -6
OWATONNA       CLEAR     10   3  72 NW14      29.91R WCI  -5
FARIBAULT      PTCLDY    12   3  67 W10       29.92S WCI  -1
$$

...ELSEWHERE IN MINNESOTA...


CITY           SKY/WX    TMP DP  RH WIND       PRES   REMARKS
MINNEAPOLIS    CLEAR     14   3  61 NW15G23   29.93R WCI  -1
INTNL FALLS    CLEAR      1  -3  83 W6        29.86F WCI -10
DULUTH         PTCLDY     5   1  83 NW16      29.79S WCI -14
RED WING       CLEAR     14   1  57 NW7       29.90R WCI   4
REDWOOD FALLS  CLEAR     16   8  71 NW12      30.00R WCI   3
MANKATO          N/A     14   7  73 NW16      29.96R WCI  -2
WORTHINGTON    CLEAR     11   7  84 W10       30.01R WCI  -3
FAIRMONT       CLEAR     12   7  80 NW17      29.99R WCI  -5
$$

...SOUTHWEST WISCONSIN...


CITY           SKY/WX    TMP DP  RH WIND       PRES   REMARKS
LA CROSSE      CLEAR     17   6  62 NW21      29.85R WCI   0
PRAIRIE DU CHI FLURRIES  19  10  69 NW14G20   29.85S WCI   5
BOSCOBEL       CLOUDY    19   9  65 W12G17    29.85R WCI   7
LONE ROCK      MOCLDY    18   8  65 NW17G26   29.81R WCI   3
PLATTEVILLE    CLOUDY    17  12  80 NW3       29.80R
FORT MC COY    MOCLDY    15   9  76 W15G24    29.82S WCI   0
MAUSTON-NEW LI CLOUDY    15   8  72 NW13G20   29.77R HAZE    WCI   2
VIROQUA        CLOUDY    15  10  80 NW14      29.78R WCI   0
WIS DELLS      CLOUDY    17  12  82 NW10      29.75R WCI   4
$$

...ELSEWHERE IN WISCONSIN...


CITY           SKY/WX    TMP DP  RH WIND       PRES   REMARKS
MILWAUKEE      LGT SNOW  21  15  78 W15       29.69R WCI   8
MADISON        LGT SNOW  18  13  80 NW8       29.75R WCI   8
GREEN BAY      LGT SNOW  20  16  84 NW14      29.66R FOG     WCI   7
EAU CLAIRE     NOT AVBL
BLACK RVR FLS  FAIR      13   5  70 NE8G16    29.82R WCI   2
MEDFORD        LGT SNOW  11   4  72 NW15G29   29.69R WCI  -5
WAUSAU         LGT SNOW  14   8  77 NW8G18    29.68R WCI   3
WIS RAPIDS     CLOUDY    14   6  70 NW17G35   29.75R WCI  -3
MARSHFIELD     LGT SNOW  12   4  70 NW25      29.72R WCI  -8
RICE LAKE      PTCLDY    11   4  73 NW3       29.84R
$$

...NORTHEAST IOWA...


CITY           SKY/WX    TMP DP  RH WIND       PRES   REMARKS
WATERLOO       CLEAR     15   9  76 NW14G22   29.93R WCI   0
DUBUQUE        MOCLDY    17  10  74 NW13      29.83R WCI   4
DECORAH        CLEAR     14   5  67 NW13G20   29.85R WCI   0
MASON CITY     CLEAR     11   7  84 NW20      29.95R WCI  -7
CHARLES CITY   MOCLDY    14   9  79 NW15      29.91R WCI  -1
OELWEIN        CLEAR     14  10  85 NW18      29.89R WCI  -3
$$

...ELSEWHERE IN IOWA...


CITY           SKY/WX    TMP DP  RH WIND       PRES   REMARKS
DES MOINES     PTCLDY    18  10  71 NW16G24   30.02R WCI   3
IOWA CITY      CLEAR     19  12  74 NW17G25   29.95R WCI   4
FORT DODGE     CLEAR     10   3  72 NW6       30.01R WCI   1
MARSHALLTOWN   CLEAR     14   9  80 NW20      29.96R WCI  -3
CEDAR RAPIDS   CLEAR     15  12  88 W15       29.92R WCI   0
$$

...NORTHERN ILLINOIS...


CITY           SKY/WX    TMP DP  RH WIND       PRES   REMARKS
CHICAGO-OHARE  MOCLDY    23  15  71 NW16G24   29.74R WCI  10
CHICAGO-MIDWAY FLURRIES  25  15  66 W15G23    29.74R WCI  13
MOLINE         CLEAR     22  12  65 NW22G30   29.89R WCI   6
ROCKFORD       CLOUDY    20  14  77 NW15      29.81R WCI   6
PEORIA         MOCLDY    23  14  68 W14G26    29.89R WCI  11
$$

NOTE: "FAIR" INDICATES FEW OR NO CLOUDS BELOW 12,000 FEET WITH NO
SIGNIFICANT WEATHER AND/OR OBSTRUCTIONS TO VISIBILITY. WIND
SPEEDS ARE IN MILES-PER-HOUR.




USA.gov is the U.S. government's official web portal to all federal, state and local government web resources and services.